User: anonymous   Login
Location: �clusier
(49.9361°N, 2.7869°E)
Time: 23:04:51
(UTC+00:00)
Language:

Cosmos 2016 Rocket - Orbit

View from above orbital plane
View from above orbital plane
View from above satellite
View from above satellite

Ground track
Ground track

The orbit data is extracted from the following two-line orbital elements,

1 19922U 89028B   21269.46261626  .00000045  00000-0  29849-4 0  9998
2 19922  82.9625 347.8084 0036444 187.4447 172.6174 13.77242935632010
Epoch (UTC): 26 September 2021 11:06:10
Eccentricity: 0.0036444
inclination: 82.9625°
perigee height: 947 km
apogee height: 1000 km
right ascension of ascending node: 347.8084°
argument of perigee: 187.4447°
revolutions per day: 13.77242935
mean anomaly at epoch: 172.6174°
orbit number at epoch: 63201

The dashed part of the orbit path shows where the satellite is in the earth's shadow,  

DLR